Home   Weather   Luhansk   Past weeks

Flag for Ukraine Past Weather in Luhansk, Ukraine — Yesterday and Last 2 Weeks

Now
37 °F

Fog.


Feels Like: 33 °F
Forecast: 15 / 35 °F
Wind: 6 mph from West

Location: Rostov-Na-Donu

Current Time: Dec 10, 2016 at 5:49:47 pm

Latest Report: Dec 10, 2016 at 5:00 pm


Visibility: 1 mi

Pressure: 29.74 "Hg

Humidity: 93%

Dew Point: 36 °F

Location of LuhanskLocation

Past Weather in Luhansk — Graph

°F

Luhansk Temperature Yesterday

Maximum temperature yesterday: 36 °F (at 10:00 am)
Minimum temperature yesterday: 32 °F (at 12:00 am)
Average temperature yesterday: 34 °F

High & Low Weather Summary for the Past Weeks

 TemperatureHumidityPressure
High52 °F (Nov 28, 12:00 pm)100% (Nov 27, 11:00 pm)30.54 "Hg (Nov 27, 11:00 pm)
Low10 °F (Dec 8, 1:00 am)54% (Dec 7, 1:30 pm)29.56 "Hg (Dec 3, 7:00 am)
Average30 °F84%30.01 "Hg
* Reported Nov 25 4:00 pm — Dec 10 4:30 pm, Luhansk, Weather by CustomWeather, © 2016

Note: Actual official high and low records may vary slightly from our data, if they occured in-between our weather recording intervals... More about our weather records

Advertising

Luhansk Weather History for the Previous 24 Hours

Scroll right to see more
 ConditionsComfort  
Time TempWeatherWind HumidityBarometerVisibility
4:30 pm
Sat, Dec 10
37 °FFog.10 mph93%29.71 "Hg2 mi
4:00 pm37 °FFog.10 mph93%29.71 "Hg2 mi
3:30 pm37 °FFog.10 mph100%29.71 "Hg2 mi
3:00 pm37 °FFog.10 mph100%29.71 "Hg2 mi
2:30 pm37 °FFog.10 mph93%29.71 "Hg1 mi
2:00 pm36 °FChilly.10 mph100%29.71 "Hg1 mi
1:00 pm37 °FFog.10 mph93%29.71 "Hg2 mi
12:30 pm37 °FFog.8 mph93%29.68 "Hg1 mi
12:00 pm36 °FFog.8 mph100%29.71 "Hg1 mi
11:30 am36 °FChilly.8 mph100%29.71 "Hg1 mi
11:00 am36 °FFog.10 mph100%29.71 "Hg1 mi
10:30 am36 °FChilly.10 mph100%29.71 "Hg1 mi
10:00 am36 °FFog.10 mph93%29.71 "Hg0 mi
9:30 am36 °FChilly.10 mph93%29.71 "Hg1 mi
9:00 am36 °FChilly.8 mph93%29.71 "Hg1 mi
8:30 am36 °FDrizzle. Fog.8 mph100%29.68 "Hg1 mi
8:00 am36 °FDrizzle. Fog.13 mph93%29.68 "Hg1 mi
7:30 am36 °FChilly.13 mph93%29.68 "Hg1 mi
7:00 am36 °FChilly.17 mph93%29.68 "Hg0 mi
6:30 am36 °FChilly.15 mph93%29.68 "Hg0 mi
6:00 am36 °FChilly.15 mph93%29.68 "Hg1 mi
5:30 am36 °FLight rain. Fog.15 mph93%29.68 "Hg1 mi
5:00 am36 °FChilly.15 mph93%29.68 "Hg0 mi
4:30 am36 °FChilly.15 mph93%29.71 "Hg1 mi
4:00 am36 °FChilly.13 mph93%29.71 "Hg1 mi
3:30 am36 °FChilly.13 mph93%29.71 "Hg1 mi
3:00 am36 °FChilly.17 mph93%29.71 "Hg1 mi
2:30 am36 °FChilly.15 mph93%29.71 "Hg1 mi
2:00 am36 °FSprinkles. Fog.15 mph93%29.71 "Hg1 mi
1:30 am36 °FChilly.13 mph93%29.71 "Hg1 mi
1:00 am36 °FSprinkles. Fog.17 mph93%29.74 "Hg1 mi
12:00 am36 °FSprinkles. Fog.15 mph93%29.74 "Hg1 mi
11:00 pm
Fri, Dec 9
36 °FSprinkles. Fog.13 mph93%29.74 "Hg1 mi
10:30 pm36 °FSprinkles. Fog.15 mph93%29.74 "Hg1 mi
10:00 pm36 °FLight rain. Fog.13 mph93%29.74 "Hg1 mi
9:30 pm36 °FChilly.13 mph93%29.74 "Hg1 mi
9:00 pm36 °FSprinkles. Fog.13 mph93%29.74 "Hg1 mi
8:30 pm36 °FSprinkles. Fog.15 mph93%29.77 "Hg1 mi
8:00 pm36 °FSprinkles. Fog.15 mph93%29.77 "Hg1 mi
7:30 pm36 °FSprinkles. Fog.15 mph93%29.77 "Hg1 mi
7:00 pm36 °FSprinkles. Fog.10 mph93%29.77 "Hg1 mi
6:00 pm36 °FSprinkles. Fog.10 mph93%29.77 "Hg2 mi
5:00 pm36 °FSprinkles. Fog.10 mph93%29.77 "Hg2 mi
Weather by CustomWeather, © 2016

See weather overviewHow to use our weather pages